Content
SEND FEEDBACK

Daily
Averages
Monthly
Summary
United States of America

PYGA BEACH, GUAM


Home > North America > United States > Guam
Elevation: 6 meters     Latitude: 13 17N     Longitude: 144 39E

WEATHER
 
SELECT A DAY
Number of Records: 352,394;   Date Range: 1/1/95 - 10/29/14
 
SHARE

PRINT THIS DATA

[ ← Previous Day ]
WEATHER ALMANAC - 12 FEBRUARY, 2014
[ Next Day → ]
[ °F ]   °C
Weather ElementAverageHighLow
Temperature25.8 °C28.1 °C (11:58 am)22.6 °C (6:58 am)
Dewpoint22.9 °C24 °C (8:35 pm)21.2 °C (6:58 am)
Humidity84.2 %94 % (8:35 pm)72 % (11:58 am)
Barometer1010.2 hPa1011.9 hPa (10:18 am)1007.8 hPa (2:58 am)
Wind Speed11.6 km/h18.5 km/h (2:43 pm)
Weather ElementAverage
Visibility16.1 km
Wind DirectionENE (78.4 °)

Weather ElementTotal
Precipitation---
Cooling Degree Days7.1 (Base 18.3)
Growing Degree Days15.4 (Base 10)
Averaged from 43 records on 12 February, 2014
WEATHER CONDITIONS BREAKOUT
WIND DIRECTION BREAKOUT
WEATHER BY HOUR - 12 FEBRUARY, 2014
[ °F ]   °C
Local TimeTemperatureDewpointHumidityBarometerVisibilityWind DirectionWind SpeedGust SpeedPrecipitationEventsConditions
1:58 AM23.7 °C22.3 °C92 %1008.1 hPa16.1 kmEast (90°)9.3 km/hPartly Cloudy
2:58 AM23.6 °C22 °C91 %1007.8 hPa16.1 kmEast (100°)7.4 km/hClear
3:58 AM23.1 °C21.3 °C90 %1007.8 hPa16.1 kmEast (100°)7.4 km/hClear
4:58 AM23.1 °C21.8 °C92 %1008.5 hPa16.1 kmEast (90°)5.6 km/hClear
5:58 AM23.5 °C22.3 °C93 %1008.8 hPa16.1 kmESE (110°)5.6 km/hPartly Cloudy
6:58 AM22.6 °C21.2 °C92 %1009.5 hPa16.1 kmEast (90°)5.6 km/hClear
7:58 AM24.6 °C23.2 °C92 %1009.8 hPa16.1 kmEast (90°)7.4 km/hScattered Clouds
8:18 AM26 °C23 °C83 %1011.2 hPa16.1 kmEast (90°)9.3 km/hMostly Cloudy
8:28 AM26 °C22 °C78 %1011.2 hPa16.1 kmEast (100°)9.3 km/hScattered Clouds
8:58 AM26.6 °C22.4 °C78 %1010.5 hPa16.1 kmEast (80°)14.8 km/hClear
9:58 AM27.2 °C22.8 °C77 %1011.2 hPa16.1 kmEast (100°)13 km/hScattered Clouds
10:13 AM28 °C23 °C74 %1011.5 hPa16.1 kmESE (110°)16.7 km/hMostly Cloudy
10:18 AM28 °C23 °C74 %1011.9 hPa16.1 kmEast (90°)14.8 km/hScattered Clouds
10:58 AM27.7 °C22.6 °C74 %1010.5 hPa16.1 kmEast (90°)13 km/hClear
11:58 AM28.1 °C22.6 °C72 %1009.8 hPa16.1 kmEast (100°)9.3 km/hPartly Cloudy
12:58 PM27.8 °C22.7 °C74 %1009.5 hPa16.1 kmVariable11.1 km/hScattered Clouds
1:58 PM27.6 °C22.1 °C72 %1008.5 hPa16.1 kmNE (50°)13 km/hScattered Clouds
2:43 PM28 °C23 °C74 %1009.1 hPa16.1 kmENE (70°)18.5 km/hMostly Cloudy
2:48 PM28 °C23 °C74 %1009.1 hPa16.1 kmENE (70°)14.8 km/hScattered Clouds
2:58 PM27.8 °C23 °C75 %1007.8 hPa16.1 kmEast (100°)13 km/hScattered Clouds
3:08 PM28 °C23 °C74 %1008.8 hPa16.1 kmEast (90°)13 km/hMostly Cloudy
3:13 PM28 °C23 °C74 %1008.8 hPa16.1 kmENE (70°)14.8 km/hScattered Clouds
3:58 PM27.2 °C22.8 °C77 %1008.1 hPa16.1 kmENE (60°)14.8 km/hPartly Cloudy
4:58 PM26.4 °C22.6 °C79 %1008.5 hPa16.1 kmENE (60°)9.3 km/hPartly Cloudy
5:58 PM26.4 °C22.8 °C80 %1008.8 hPa16.1 kmENE (60°)9.3 km/hMostly Cloudy
6:58 PM25.2 °C22.9 °C87 %1009.5 hPa16.1 kmNE (50°)11.1 km/hPartly Cloudy
7:48 PM26 °C23 °C83 %1011.2 hPa16.1 kmNE (50°)11.1 km/hMostly Cloudy
7:58 PM25.7 °C23.4 °C87 %1010.2 hPa16.1 kmNE (50°)13 km/hMostly Cloudy
8:03 PM25 °C23 °C89 %1011.2 hPa16.1 kmENE (60°)13 km/hMostly Cloudy
8:35 PM25 °C24 °C94 %1011.5 hPa16.1 kmENE (70°)9.3 km/hRainLight Rain
8:53 PM25 °C24 °C94 %1011.5 hPa16.1 kmENE (70°)9.3 km/hOvercast
8:58 PM25.3 °C24 °C92 %1010.5 hPa16.1 kmEast (80°)11.1 km/h0 mmOvercast
9:08 PM25 °C24 °C94 %1011.5 hPa16.1 kmENE (70°)13 km/hOvercast
9:13 PM25 °C24 °C94 %1011.5 hPa16.1 kmENE (70°)11.1 km/hMostly Cloudy
9:28 PM25 °C23 °C89 %1011.5 hPa16.1 kmEast (80°)13 km/hScattered Clouds
9:38 PM25 °C23 °C89 %1011.9 hPa16.1 kmEast (80°)13 km/hMostly Cloudy
9:43 PM25 °C23 °C89 %1011.9 hPa16.1 kmEast (80°)11.1 km/hScattered Clouds
9:53 PM25 °C23 °C89 %1011.9 hPa16.1 kmEast (80°)13 km/hMostly Cloudy
9:58 PM25.3 °C23.4 °C89 %1011.2 hPa16.1 kmEast (90°)13 km/hMostly Cloudy
10:03 PM25 °C23 °C89 %1011.5 hPa16.1 kmEast (80°)13 km/hMostly Cloudy
10:58 PM24.9 °C23.4 °C91 %1010.5 hPa16.1 kmEast (80°)14.8 km/hScattered Clouds
11:53 PM25 °C23 °C89 %1011.9 hPa16.1 kmEast (80°)13 km/hMostly Cloudy
11:58 PM25.1 °C23 °C88 %1011.2 hPa16.1 kmEast (90°)13 km/hScattered Clouds
Hourly data recorded from PGUA, located 0 kilometers away from Pyga Beach, Guam







STORIES FROM OUR PARTNERS